Regional Weather Roundup
Issued by NWS Mt. Holly, NJ

Home | Current Version | Previous Version | Text Only | Print | Product List | Glossary On
Versions: 1 2 3 4 5 6 7 8 9 10 11 12 13 14 15 16 17 18 19 20 21 22 23 24 25 26 27
000
ASUS41 KPHI 122212
RWRPHI

REGIONAL WEATHER ROUNDUP
NATIONAL WEATHER SERVICE MOUNT HOLLY NJ
500 PM EST TUE DEC 12 2017

NOTE:  "FAIR" INDICATES FEW OR NO CLOUDS BELOW 12,000 FEET WITH NO
SIGNIFICANT WEATHER AND/OR OBSTRUCTIONS TO VISIBILITY.

 * = STATION DOES NOT REPORT PRECIPITATION (E.G. RAIN, SNOW, ETC.)
        OR FOG.

NJZ015>026-122300-
SOUTHERN NEW JERSEY

CITY           SKY/WX    TMP DP  RH WIND       PRES   REMARKS
POMONA         CLOUDY    45  33  63 W10       29.49R
WILDWOOD*      CLOUDY    45  34  65 NW12      29.51R
MILLVILLE      CLOUDY    40  38  93 W3        29.50R
WRIGHTSTOWN    CLOUDY    42  31  64 W12G25    29.45R
MOUNT HOLLY    CLOUDY    42  31  64 W7        29.49R
TRENTON        CLOUDY    42  31  64 W8        29.48R

$$
NJZ001>014-122300-
NORTHERN NEW JERSEY

CITY           SKY/WX    TMP DP  RH WIND       PRES   REMARKS
SUSSEX         CLOUDY    39  32  76 VRB5      29.44R
ANDOVER*         N/A     37  32  82 SW3       29.43S
MORRISTOWN     LGT RAIN  39  34  81 W9G18     29.45R WCI  33
NEWARK         LGT RAIN  42  34  73 W17       29.45R
TETERBORO      CLOUDY    43  33  68 W9        29.42S
CALDWELL       LGT RAIN  40  34  79 W8G18     29.44R WCI  34
SOMERVILLE     CLOUDY    40  33  76 VRB5      29.45R
TOMS RIVER*    LGT RAIN  42  35  76 W13G21    29.48R

$$
PAZ043-044-047-054-055-060>062-066>071-122300-
EASTERN PENNSYLVANIA

CITY           SKY/WX    TMP DP  RH WIND       PRES   REMARKS
PHILADELPHIA   CLOUDY    44  29  55 W8        29.51R
NORTH PHILA    CLOUDY    44  29  55 NW14      29.51R
BLUE BELL*     CLOUDY    39  28  65 NW6G17    29.50R WCI  35
DOYLESTOWN     CLOUDY    40  26  57 NW13      29.47R WCI  32
QUAKERTOWN*    CLOUDY    39  27  60 W12G17    29.48R WCI  32
PERKASIE*      CLOUDY    39  27  60 NW10G18   29.48R WCI  32
POTTSTOWN      CLOUDY    38  25  59 NW14G23   29.51R WCI  30
LANCASTER      CLOUDY    36  23  59 NW16      29.55R WCI  26
COATESVILLE    CLOUDY    36  28  75 NW18      29.53R WCI  25
READING        PTCLDY    36  25  64 NW14      29.52R WCI  27
ALLENTOWN      CLOUDY    39  26  59 W20G29    29.48R WCI  29
MOUNT POCONO   LGT SNOW  26  23  88 NW22G31   29.42R FOG     WCI  12
HAZLETON       MOCLDY    28  23  80 W6        29.50R WCI  22
LEHIGHTON      FLURRIES  34  23  64 NW10G22   29.52R WCI  26
WILKES BARRE   CLOUDY    32  20  61 W8        29.50R WCI  25

$$
DEZALL-MDZ008-012-015-019-020-122300-
DELAWARE AND EASTERN MARYLAND

CITY           SKY/WX    TMP DP  RH WIND       PRES   REMARKS
WILMINGTON     CLOUDY    43  28  55 NW16G22   29.52R
DOVER          CLOUDY    43  34  70 W8        29.51R
GEORGETOWN     CLOUDY    43  36  76 SW3       29.52R
EASTON         CLOUDY    45  27  49 NW17      29.57R
ABERDEEN       CLOUDY    41  36  81 NW8G23    29.55R
PATUXENT       LGT RAIN  45  31  58 NW16G28   29.54R
OCEAN CITY     CLOUDY    41  39  93 W3        29.53S
WALLOPS ISLAND MOCLDY    41  38  89 CALM      29.53F
CAMBRIDGE      CLOUDY    45  32  61 NW12G23   29.53S
SALISBURY      CLOUDY    40  39  97 CALM      29.53R

$$
PAZ001-021-NYZ056-072-MDZ011-DCZ001-122300-
OTHER NEARBY LOCATIONS

CITY           SKY/WX    TMP DP  RH WIND       PRES   REMARKS
HARRISBURG     CLOUDY    36  17  46 NW20G28   29.57R WCI  25
STATE COLLEGE  CLOUDY    23   7  50 W18G30    29.62R WCI   9
WILLIAMSPORT   CLOUDY    32  15  49 NW20G28   29.57R WCI  20
BINGHAMTON     FLURRIES  24  17  74 NW9       29.46R WCI  14
NEW YORK CITY  CLOUDY    43  33  68 W8        29.44S
BALTIMORE      CLOUDY    39  21  48 NW16      29.55R WCI  30
WASHINGTON DC  CLOUDY    41  21  44 NW17G32   29.59R

$$




USA.gov is the U.S. government's official web portal to all federal, state and local government web resources and services.